Location: Karlovy Vary
(50.2170°N, 12.9000°E)
Time: 00:10:50
(UTC+01:00)

ISS - Pass Details

Date: 03 October 2020
Orbit: 417 x 420 km, 51.6° (Epoch: 30 October)

Event Time Altitude Azimuth Distance (km) Brightness Sun altitude
Rises 19:32:01 0° 287° (WNW) 2,368 2.0 -8.9°
Reaches altitude 10° 19:34:08 10° 284° (WNW) 1,502 0.6 -9.2°
Maximum altitude 19:37:28 61° 203° (SSW) 480 -3.4 -9.8°
Enters shadow 19:40:26 13° 124° (ESE) 1,354 -1.7 -10.2°
